RH
28 27 27 27 27 27 26 26 25 25 25 24 24 24 24 23 23 23 22 22 22 22 21 21 21 21 20 20 20 19 19 19 19 19 19 19 19 19 19 18 18 18 18 18 17 17 17 17 16 16 16 16
21 21 21 21 20 20 20 20 20 20 20 20 20 20 20 20 20 20 20 20 20 20 20 19 20 19 19 19 19 19 18 18 18 18 18 18 18 18 18 18 18 18 17 17 17 17 17 17 17 16 16 16
18 18 18 18 18 18 18 18 18 18 18 18 18 17 17 17 17 17 17 17 17 17 17 17 18 18 18 18 18 18 17 18 18 17 17 17 17 17 17 17 16 16 16 16 16 16 16 16 16 16 16 16
19 19 19 18 18 18 18 18 17 17 17 17 17 17 17 17 16 16 16 16 16 16 16 16 16 16 16 16 16 16 16 16 16 16 16 16 16 16 16 16 16 16 15 15 15 15 15 15 15 15 15 15
18 18 18 18 18 17 17 17 17 17 16 16 16 16 16 16 16 16 16 16 16 16 16 16 16 16 16 16 16 16 16 15 15 15 15 15 15 15 15 15 15 15 15 15 15 14 14 14 14 14 14 14
18 18 18 18 18 17 17 17 17 16 16 16 16 16 16 16 16 16 16 16 15 16 15 16 15 16 16 16 16 16 16 16 16 16 16 16 16 16 15 15 15 14 14 14 14 14 14 14 13 13 13 13
17 17 17 17 16 16 16 15 15 15 15 15 15 15 15 15 15 14 15 15 15 15 14 15 15 15 15 15 16 16 16 16 16 17 17 17 17 17 17 17 16 16 15 15 15 14 14 14 14 13 13 13
15 15 16 16 16 16 16 16 15 15 15 14 14 14 14 14 14 14 14 14 14 14 14 14 14 14 14 14 14 14 15 15 16 16 16 17 17 17 17 18 17 17 17 16 16 16 15 15 15 15 14 14
15 16 16 16 17 16 16 16 16 16 16 15 15 15 15 15 16 16 16 17 17 17 17 16 16 16 15 15 15 14 14 14 15 15 15 15 16 16 16 17 17 17 17 17 16 16 16 16 16 16 16 16
18 19 19 19 19 18 18 18 18 17 17 18 18 18 19 19 20 21 22 22 22 22 21 21 20 19 19 18 17 17 16 16 15 15 15 15 15 15 15 16 16 16 16 16 16 15 16 15 15 16 16 17
24 24 24 25 24 24 24 23 23 23 23 23 23 24 25 25 25 25 25 24 24 23 22 22 21 20 20 19 18 18 17 17 17 16 16 16 16 15 15 16 16 16 16 16 16 16 16 15 15 15 16 16
30 30 30 30 30 30 30 29 29 28 28 28 27 27 26 25 24 22 22 21 20 19 19 18 18 17 16 16 16 15 15 15 15 15 15 15 16 16 16 16 16 16 17 17 17 17 16 16 16 16 16 16
36 36 35 35 33 31 30 29 28 27 26 24 23 22 21 20 18 17 17 16 15 15 14 14 13 13 12 12 12 11 12 12 12 13 13 14 14 14 15 15 15 16 16 16 17 17 17 17 17 16 16 16
39 37 34 32 29 27 25 24 23 22 21 20 19 18 17 16 15 14 13 13 12 12 12 11 11 10 10 10 9 9 9 9 10 10 11 11 12 12 13 13 14 14 14 15 15 16 16 16 16 16 16 16
35 33 31 29 27 26 25 25 24 24 23 23 22 20 18 16 15 14 13 13 13 13 12 11 11 10 10 9 9 8 8 8 8 9 9 9 10 10 11 11 12 12 13 13 14 14 14 14 15 15 15 15
35 34 33 32 32 31 31 31 32 33 32 30 27 24 21 19 18 17 17 16 15 15 14 12 12 10 10 9 8 8 8 8 8 8 9 9 9 10 10 10 10 11 11 12 12 13 13 13 14 14 14 14
39 37 37 37 37 38 39 39 40 38 36 32 28 25 23 21 20 20 19 18 16 15 13 12 10 9 9 9 9 9 8 9 8 8 9 9 9 9 10 10 10 10 11 11 11 12 12 13 13 13 14 14
41 41 42 43 45 45 44 42 40 38 35 32 28 25 23 21 20 19 18 16 14 12 10 9 9 9 9 10 10 10 9 9 9 9 8 8 9 9 9 9 9 10 10 11 11 11 11 12 12 13 13 14
50 52 51 49 48 48 45 42 40 38 36 32 28 24 22 20 18 17 15 13 11 10 9 9 10 10 10 10 10 10 10 9 9 9 8 8 8 8 9 9 9 9 9 10 10 11 11 11 12 12 13 13
63 62 58 51 48 48 46 43 40 37 33 29 26 22 20 18 16 14 12 10 9 9 10 10 10 10 10 10 9 9 9 9 9 9 8 8 8 8 8 8 9 9 9 9 10 10 10 11 11 12 12 13
68 61 54 49 48 49 46 42 38 33 30 26 23 20 18 16 13 11 10 9 10 10 11 10 10 10 9 9 9 9 8 8 8 8 8 8 8 9 8 9 9 9 9 10 10 10 10 11 11 12 12 12
61 53 47 47 49 48 44 39 34 30 27 23 21 18 16 13 11 10 10 10 11 10 10 10 9 9 8 8 8 8 8 8 8 8 8 8 8 8 8 9 9 9 10 10 10 10 11 11 11 12 12 13
55 49 46 50 51 47 41 35 31 27 24 22 19 16 13 11 10 10 11 11 11 10 10 9 9 8 8 8 8 8 8 8 8 8 8 8 8 8 8 9 9 9 9 10 10 10 11 11 12 12 12 13
54 48 50 55 52 46 39 33 29 26 23 21 18 14 12 10 10 11 12 11 10 10 9 9 9 9 9 9 9 9 9 9 9 9 9 9 9 9 9 9 9 9 9 9 10 10 11 11 12 12 12 13
50 48 52 54 51 45 39 34 30 26 23 19 16 13 11 11 11 12 12 11 10 10 10 10 10 10 11 11 11 11 11 11 11 11 11 11 10 10 10 10 10 9 9 9 9 10 10 10 11 11 12 12
47 47 51 54 52 46 40 37 32 27 22 18 14 12 11 12 12 13 12 12 11 10 10 11 11 12 12 13 13 13 13 13 12 12 12 12 12 12 11 11 11 11 10 10 10 10 10 10 10 11 11 12
46 48 53 57 55 49 44 40 34 28 21 16 13 12 12 13 13 14 13 12 12 11 11 12 12 13 13 14 14 14 13 13 13 13 13 14 14 13 12 11 11 11 11 12 12 11 11 11 11 11 11 11
48 53 58 60 57 51 46 42 35 27 20 15 13 12 13 13 14 14 14 13 13 12 13 13 14 14 15 16 16 15 14 14 14 14 14 14 14 14 14 13 13 13 13 14 14 14 14 13 13 13 12 13
54 59 64 66 59 53 48 42 34 25 19 15 13 13 13 14 15 15 15 14 14 13 14 14 15 15 16 18 18 17 16 15 15 15 15 15 15 15 16 16 17 17 17 17 17 17 17 16 16 16 15 15
61 66 71 70 62 55 50 41 32 24 18 15 14 14 14 15 16 16 16 15 14 14 14 15 16 16 17 19 20 19 18 17 16 16 17 17 17 17 18 19 20 21 21 21 22 22 22 21 20 20 19 19
66 74 76 69 62 57 49 39 30 23 18 16 15 15 15 16 17 17 17 16 15 14 15 16 16 17 18 21 21 21 19 19 18 19 19 19 20 20 21 21 22 23 24 24 25 26 26 26 26 25 24 24
Wind_Speed
76 77 79 80 81 82 83 84 85 86 87 88 89 90 92 93 94 96 97 98 99 100 102 103 104 106 107 108 109 109 110 111 112 112 113 114 115 116 116 117 117 117 117 118 118 119 119 119 119 119 119 119
71 73 75 76 77 78 80 81 82 83 84 85 87 88 90 91 93 94 95 97 98 99 100 101 102 104 105 107 108 109 109 110 111 112 112 113 114 115 116 117 117 118 118 119 119 120 120 120 120 121 121 121
63 65 67 68 70 72 73 75 76 78 79 81 82 84 86 88 89 91 93 94 95 96 98 99 99 100 102 103 104 106 106 107 108 109 109 110 111 112 113 114 115 116 117 118 118 119 119 120 120 120 121 121
59 60 62 64 65 67 69 71 73 74 76 77 78 80 81 83 85 86 88 89 90 91 93 94 95 96 97 98 99 101 102 103 104 105 106 107 108 108 109 110 110 111 113 114 115 116 117 117 118 118 119 119
59 60 62 63 65 67 68 70 71 73 75 76 77 78 79 80 81 83 84 85 86 88 89 90 91 92 93 94 95 96 97 98 100 100 101 102 103 105 105 106 107 108 108 109 111 112 113 114 114 115 115 116
59 61 62 64 65 67 68 70 71 73 74 76 77 78 79 81 82 83 84 85 86 87 88 89 90 90 91 92 93 93 94 95 96 96 97 97 98 100 101 102 103 104 104 105 106 108 109 110 110 111 112 112
61 62 64 66 67 69 70 71 73 74 75 76 77 78 80 81 82 83 84 85 86 87 88 89 90 91 92 93 93 94 95 95 95 96 95 95 96 97 97 98 99 100 100 101 102 103 104 105 106 107 108 108
62 64 66 68 69 71 72 73 74 75 76 76 77 78 79 80 81 82 83 84 85 86 87 88 89 90 91 92 93 94 95 96 97 97 97 97 97 97 97 97 97 98 98 98 98 99 100 101 101 102 103 103
64 66 68 69 71 72 73 74 75 75 76 76 76 77 77 78 78 79 80 81 82 83 84 85 86 87 89 90 91 92 94 95 96 97 97 98 98 99 99 99 99 99 99 99 98 98 98 98 98 99 99 100
67 69 70 72 73 73 74 74 74 74 75 75 76 76 77 78 79 80 81 82 83 84 85 86 87 87 88 89 90 91 92 93 95 95 96 97 97 98 99 99 100 100 100 101 101 100 100 100 99 98 98 98
70 71 73 74 74 75 75 76 76 76 77 78 79 80 81 82 83 84 85 86 86 87 88 88 89 90 91 92 92 93 94 95 95 96 96 97 97 97 98 98 99 100 100 101 102 102 102 102 101 101 100 100
72 73 74 75 76 77 78 79 79 80 80 81 82 83 84 85 86 87 87 88 88 88 89 89 90 91 92 92 93 94 95 96 97 98 99 99 99 99 99 99 99 100 100 101 101 102 103 103 103 103 102 102
73 75 76 77 78 79 79 80 80 81 82 83 84 85 86 87 88 88 88 88 88 89 89 90 90 91 92 93 94 95 96 97 98 99 100 100 101 101 101 101 101 101 102 102 102 103 103 103 104 104 104 104
76 77 78 78 79 79 80 81 81 82 83 84 85 85 86 87 88 89 89 90 90 91 92 92 93 94 95 96 97 97 98 98 99 100 100 101 102 102 103 103 103 103 103 104 104 104 105 105 105 105 105 105
78 78 79 79 80 82 83 84 85 86 87 88 89 90 90 91 92 93 94 94 95 96 97 98 100 101 102 102 103 103 102 102 102 102 102 102 103 104 104 104 105 105 105 105 105 106 106 106 107 107 107 107
79 79 81 83 85 87 88 89 91 92 93 94 95 96 97 97 98 99 100 101 102 103 104 106 107 109 109 110 109 108 107 106 105 104 103 104 104 105 105 105 106 106 106 106 107 107 107 108 108 108 109 109
80 82 84 86 88 90 92 93 94 96 97 98 99 100 101 102 102 103 104 104 106 107 109 111 112 113 113 113 113 112 110 109 108 106 105 105 105 106 106 107 107 107 108 108 108 108 109 109 109 110 110 110
82 84 87 89 91 93 94 95 97 98 100 101 102 104 104 105 105 105 106 107 109 111 112 113 113 113 113 113 112 112 111 110 109 108 107 106 106 107 108 108 108 109 109 110 110 110 110 110 111 111 111 112
85 87 89 92 94 97 98 99 100 101 102 103 105 107 107 106 107 107 108 110 112 113 113 112 112 111 110 110 110 110 110 110 109 109 109 108 108 108 108 109 110 111 111 111 112 112 112 112 112 113 113 113
87 90 93 96 99 101 103 103 103 103 104 106 108 108 108 108 108 110 111 112 113 112 111 109 107 106 106 106 106 107 108 108 109 109 109 109 109 109 109 110 111 112 112 113 113 113 114 114 114 114 114 114
88 91 95 98 102 104 105 105 105 105 107 109 110 109 109 110 111 112 113 113 111 108 105 103 102 101 101 101 101 102 104 105 106 107 108 108 109 110 110 110 111 112 112 113 114 114 115 115 115 115 116 116
89 93 97 101 104 106 107 106 106 107 109 110 110 111 111 112 113 113 112 110 106 102 99 97 96 95 95 95 95 96 97 99 100 102 104 105 106 107 108 109 109 110 111 112 113 114 114 115 115 116 116 116
92 96 100 104 107 108 108 108 108 109 110 111 111 112 113 113 113 112 109 105 101 98 95 93 91 90 89 88 88 88 89 90 92 94 96 97 99 100 102 104 105 106 107 109 110 111 112 113 114 115 115 116
95 99 103 106 109 110 110 110 110 111 111 111 112 113 114 113 112 110 106 101 97 94 92 89 87 85 84 83 83 83 83 84 85 86 88 89 90 92 94 96 98 100 101 103 104 106 108 109 110 112 113 114
97 101 104 108 111 112 112 111 111 112 112 112 113 114 114 113 111 108 103 99 95 92 90 87 84 82 81 80 80 80 80 81 81 81 82 83 84 85 85 87 90 92 94 95 97 99 100 102 104 106 108 109
99 102 106 110 113 114 114 112 112 113 113 114 114 114 114 112 110 106 102 98 95 92 89 86 83 81 80 79 78 78 78 78 78 78 78 79 79 80 80 80 82 84 85 87 89 91 92 94 95 97 100 102
100 104 108 111 114 115 114 112 112 114 114 115 115 115 114 113 110 106 102 98 95 92 89 85 83 80 79 78 77 77 76 75 75 75 75 75 75 76 76 76 76 77 78 80 81 83 84 86 87 89 91 93
102 106 110 113 116 116 113 112 113 114 115 116 116 116 115 113 110 105 101 98 95 92 89 85 83 80 78 77 76 76 75 74 73 73 72 72 72 73 73 73 73 73 74 75 76 77 78 79 80 81 83 85
104 108 112 115 118 117 113 112 113 114 115 116 116 116 115 113 109 104 100 97 95 92 89 85 83 80 78 76 75 74 74 73 72 71 71 71 70 70 70 71 71 71 71 72 73 73 74 75 76 76 78 79
106 110 114 118 119 116 113 113 114 115 116 117 117 117 116 112 108 103 100 97 95 92 88 85 82 79 76 74 73 73 73 72 71 70 70 70 70 69 69 69 69 70 70 70 71 72 72 73 73 74 74 75
108 111 115 119 119 115 114 114 115 116 117 118 118 117 115 112 107 103 100 98 95 92 88 85 82 78 75 73 71 71 71 71 70 70 69 69 68 69 69 69 69 69 69 70 70 71 71 72 72 72 73 73
Wind_Direction
281 281 281 281 281 281 281 281 281 281 280 280 280 279 279 279 279 279 279 278 278 278 278 278 278 278 277 277 277 276 276 276 275 275 275 275 274 274 274 274 274 273 273 273 273 273 272 272 272 272 272 272
283 283 283 283 283 283 283 283 282 282 282 282 281 281 280 280 280 279 279 279 279 278 278 278 278 278 278 277 277 277 276 276 276 275 275 274 274 274 274 274 273 273 273 273 273 272 272 272 272 272 272 272
286 286 286 286 285 285 285 285 284 284 284 283 283 283 282 282 282 281 281 280 280 280 279 279 278 278 278 278 277 277 276 276 276 275 275 275 274 274 274 274 273 273 273 273 272 272 272 272 272 272 271 271
286 286 286 285 285 285 285 284 284 284 283 283 283 283 283 283 282 282 282 282 281 281 280 280 280 279 279 279 278 278 277 277 276 276 276 275 275 274 274 274 273 273 273 273 273 272 272 272 271 271 271 271
286 286 286 286 286 285 285 284 284 284 283 283 282 282 282 282 282 282 282 281 281 281 280 280 280 280 279 279 279 278 278 278 277 277 276 276 276 275 275 274 274 273 273 273 273 273 272 272 271 271 271 271
287 287 287 287 287 287 286 286 285 285 284 284 283 283 282 282 282 281 281 281 281 281 280 280 280 279 279 278 278 278 278 277 277 277 276 276 276 276 275 275 274 274 274 273 273 273 273 272 272 271 271 271
288 288 288 288 288 288 288 287 287 286 286 285 284 284 283 283 282 282 282 282 281 281 281 280 280 280 279 278 278 278 277 277 276 276 276 275 275 275 275 274 274 274 274 273 273 273 273 272 272 272 272 271
290 290 290 290 290 290 290 290 290 289 288 288 287 286 286 285 285 284 284 283 283 282 282 281 280 280 279 279 278 277 277 276 276 275 275 274 274 274 274 273 273 273 273 273 272 272 272 272 272 272 272 271
295 295 295 295 295 294 294 294 293 292 292 291 290 290 289 289 289 289 288 287 287 286 285 284 283 282 281 280 279 278 277 277 276 275 274 274 273 273 273 272 272 272 272 272 271 271 271 271 271 271 271 271
302 302 302 301 301 300 299 298 297 297 296 295 295 294 294 294 293 292 291 290 289 288 287 286 285 284 283 282 281 280 279 278 277 276 275 274 273 273 272 272 272 271 271 271 271 270 270 270 270 269 269 269
306 305 305 304 304 303 302 302 301 300 300 298 297 296 295 293 292 291 289 288 287 286 286 285 284 284 283 282 282 281 280 279 278 277 276 275 274 273 273 272 272 271 271 271 270 270 270 269 269 269 268 268
306 305 305 304 304 304 304 303 302 300 298 296 294 293 291 290 289 288 287 286 285 285 284 283 283 282 282 281 281 280 279 278 278 277 276 275 274 273 273 272 271 271 271 270 270 270 270 269 269 269 268 268
306 305 305 304 304 303 302 301 300 299 297 296 294 293 292 291 290 290 289 288 287 286 285 285 284 284 283 282 281 280 279 278 277 276 275 274 273 272 272 271 271 270 270 269 269 269 269 269 268 268 268 268
306 305 304 304 304 304 304 304 303 303 302 301 300 299 298 297 296 295 294 293 292 291 291 290 289 288 287 286 284 283 282 280 278 277 275 274 273 272 271 270 270 269 269 268 268 268 268 267 267 267 267 267
306 306 307 307 308 309 310 310 310 310 309 308 307 306 305 303 302 301 300 299 298 297 296 295 294 293 291 290 288 286 285 283 280 278 276 274 273 271 270 269 268 268 267 267 267 267 267 266 266 266 266 266
309 310 311 312 313 314 314 314 314 313 312 311 309 308 307 306 305 304 303 302 301 300 299 298 297 295 294 292 290 288 286 284 281 279 276 275 273 271 270 269 268 267 266 266 265 265 265 265 265 265 265 265
312 313 314 315 316 317 316 315 314 312 311 310 309 309 308 307 306 305 304 302 301 300 299 298 297 295 293 292 290 288 286 284 281 279 276 274 272 270 269 268 267 266 265 265 264 264 264 264 264 263 263 264
313 315 316 317 317 316 315 313 312 311 311 311 310 310 309 308 306 305 304 303 302 300 299 297 296 294 292 290 288 286 284 283 281 278 276 273 271 269 268 267 265 265 264 264 263 263 262 262 262 262 262 262
315 316 317 317 316 315 314 313 313 313 312 311 311 310 309 308 307 306 304 303 302 301 299 297 295 293 290 288 286 284 283 281 279 278 276 274 271 269 267 266 265 264 263 262 262 261 261 261 261 261 261 261
316 317 317 316 316 315 315 315 314 313 312 311 311 310 309 309 308 307 306 305 303 302 299 297 294 291 289 286 284 282 281 280 278 277 275 274 272 270 268 266 265 263 262 261 261 260 260 260 260 260 260 260
316 316 316 316 317 317 317 316 314 313 312 312 311 311 311 310 309 308 307 306 304 302 299 297 294 291 288 286 283 281 280 278 277 275 274 273 272 270 269 267 265 264 263 262 261 260 259 259 259 259 259 259
315 315 317 318 319 318 317 315 314 313 312 312 312 312 312 312 311 310 309 307 305 303 301 298 295 292 289 286 284 282 280 278 277 275 274 272 271 270 269 268 266 265 264 263 262 261 260 259 259 258 258 258
315 317 319 320 320 318 317 315 314 313 312 313 314 314 314 313 313 312 311 309 308 306 303 300 298 295 292 289 287 284 282 280 278 277 275 274 273 272 271 270 268 267 266 265 264 263 262 262 261 260 260 259
317 319 320 320 320 319 317 315 314 313 314 315 315 315 315 315 315 314 313 312 311 309 307 304 301 299 296 293 291 288 286 284 282 280 278 277 275 274 273 272 271 270 268 267 266 265 265 264 263 262 262 261
318 319 320 320 320 319 318 316 315 315 315 316 316 317 317 317 317 317 316 315 314 312 310 308 305 302 300 297 295 292 290 288 285 283 281 279 278 276 275 274 274 273 271 270 269 268 267 266 265 264 264 263
318 319 320 321 321 320 318 317 316 316 316 317 318 318 319 320 320 320 319 318 317 315 313 310 308 305 303 300 297 295 292 290 288 286 283 282 280 278 277 275 275 274 273 272 271 269 268 268 267 266 266 265
319 320 320 321 321 320 319 318 317 317 317 318 319 320 321 322 323 322 322 321 320 318 315 313 310 307 305 302 299 297 294 292 289 287 285 284 282 281 280 278 276 275 275 274 273 272 271 270 269 268 267 266
319 320 321 321 321 320 319 318 317 318 318 319 321 322 324 324 325 324 324 323 322 320 317 314 312 309 306 304 301 298 296 294 291 289 287 285 284 283 283 281 280 278 277 276 275 274 273 272 271 270 269 268
320 320 321 322 321 320 319 318 318 319 320 321 323 324 325 326 326 326 326 325 323 321 318 315 313 310 307 305 302 300 297 295 293 291 289 288 286 285 284 283 282 281 280 278 277 276 275 274 273 272 271 270
320 320 321 321 321 320 319 319 319 320 321 323 324 326 327 327 327 327 327 326 324 322 319 316 313 311 308 305 303 300 298 296 295 293 291 290 288 287 286 284 283 282 281 280 279 278 277 275 274 273 272 271
320 321 321 322 321 320 320 320 321 322 323 325 326 327 328 328 329 329 328 327 325 322 320 317 314 311 308 306 303 301 298 297 296 294 293 291 290 288 287 286 284 283 281 280 279 278 277 276 275 274 273 272